Location: ???????
(55.4362°N, 38.1183°E)
Time: 03:56:12
(UTC+00:00)

N. Korean satellite - Pass Details

Date: 29 September 2021
Orbit: 450 x 495 km, 97.3° (Epoch: 15 October)

Event Time Altitude Azimuth Distance (km) Brightness Sun altitude
Rises 01:36:13 0° 29° (NNE) 2,537 11.0 -16.2°
Reaches altitude 10° 01:39:17 10° 59° (ENE) 1,663 10.6 -15.8°
Maximum altitude 01:40:58 13° 87° (E) 1,495 10.2 -15.5°
Drops below altitude 10° 01:42:40 10° 116° (ESE) 1,669 9.9 -15.3°
Sets 01:45:45 0° 145° (SE) 2,553 10.5 -14.9°
